Vorticity
-5 6 7 16 6 8 11 17 21 21 12 8 2 7 11 9 -2 1 1 6 1 4 12 12 -7 -11 14 13 7 10 12 16 13 10 6 5 6 6 4 8 5 5 8 7 2 4 9 10 15 10 3 5 11 8
7 9 10 1 7 -0 5 -3 8 3 -4 10 19 9 -2 6 10 4 9 -3 9 -2 4 1 -1 4 5 12 23 20 15 14 9 8 10 9 8 9 10 8 9 6 6 5 1 6 7 13 12 12 4 6 4 1
11 7 9 9 11 1 12 4 11 2 7 17 5 -2 2 -2 4 -4 1 2 -1 2 2 3 11 21 23 10 6 9 19 7 8 9 8 9 8 14 10 9 13 13 12 12 8 7 6 11 14 7 -1 3 8 15
-0 8 7 10 8 5 5 9 6 5 3 6 11 7 -3 6 5 -2 10 4 6 2 -1 14 4 2 13 10 14 9 13 9 6 7 5 4 6 7 6 7 8 3 9 14 11 12 19 13 2 4 3 10 14 12
0 9 0 7 -5 5 6 7 2 8 6 4 4 0 2 4 2 2 4 9 12 13 -7 1 8 33 13 14 20 14 13 11 9 12 11 11 9 12 12 11 9 17 18 15 15 7 12 6 11 14 14 18 18 18
15 30 28 15 8 28 -17 18 21 22 13 18 19 27 22 20 24 24 26 18 18 6 8 11 9 26 22 18 11 11 12 11 11 11 13 11 10 14 15 13 -1 10 17 19 26 4 12 13 13 17 14 18 15 8
21 25 32 30 27 30 29 30 27 17 17 21 20 18 18 19 13 15 21 15 17 15 11 4 8 23 17 12 10 13 10 9 8 5 7 9 10 10 12 14 13 22 16 10 6 15 10 15 13 15 12 12 15 16
9 8 7 5 10 12 10 11 14 14 15 16 16 17 17 16 18 16 9 10 11 9 10 7 6 12 9 10 12 10 8 12 13 15 13 10 14 13 9 26 20 11 11 16 16 18 19 18 20 18 17 17 17 15
10 10 11 10 9 10 9 12 8 6 4 5 6 7 8 11 10 9 9 8 9 8 10 10 13 12 15 13 13 13 12 14 12 13 12 17 12 12 23 14 17 18 18 18 16 12 12 11 13 13 13 13 17 22
10 8 8 10 9 6 8 6 7 8 10 6 8 9 7 5 5 7 8 7 7 9 8 8 17 15 19 14 12 13 17 12 20 13 12 14 13 17 14 17 19 17 23 22 20 22 21 23 24 21 16 22 20 27
12 11 11 11 10 7 7 6 3 5 4 6 7 8 8 8 8 8 8 8 8 9 12 21 20 19 16 20 21 22 19 21 24 27 21 19 23 24 24 33 31 39 39 3 20 25 35 39 26 28 25 17 29 -6
15 13 13 13 12 12 12 11 8 7 10 12 11 14 12 12 13 9 9 12 15 19 33 23 18 24 27 33 52 42 32 36 31 36 32 38 38 31 17 15 11 13 1 -13 36 4 -3 15 7 2 4 -4 3 19
11 5 11 10 10 10 10 11 13 8 11 17 21 21 20 15 14 12 13 19 24 17 13 21 23 34 33 20 1 2 -4 -5 9 10 8 -8 28 19 17 21 39 24 25 35 -25 36 -5 12 15 22 7 5 2 -4
-13 12 20 16 17 15 16 25 32 38 28 33 32 36 25 6 16 22 18 19 19 18 18 20 21 6 6 9 9 13 14 24 -6 9 -4 -13 3 39 3 -3 10 29 5 18 -10 17 6 -8 -21 2 10 6 7 5
-14 17 24 20 29 31 28 30 30 35 28 26 10 2 13 24 13 21 19 16 19 23 22 25 14 9 -1 5 -4 2 13 -10 12 22 36 31 10 -14 -13 21 -10 -11 -8 13 -8 -3 7 6 -2 6 6 4 1 25
-10 21 16 27 21 16 22 30 26 16 18 17 14 5 6 14 19 22 19 19 21 17 7 16 7 8 17 6 6 0 -6 3 11 15 20 21 19 26 17 4 -11 -3 11 11 -3 -3 3 4 9 2 7 24 11 2
24 25 22 20 16 19 16 16 17 15 7 -4 -1 12 16 16 16 17 14 15 12 6 9 3 9 13 14 2 5 5 10 8 2 -4 5 17 16 17 18 16 18 26 26 28 31 28 25 5 12 16 29 32 21 0
40 23 19 17 33 30 16 14 14 -1 2 9 8 16 9 2 6 10 9 11 12 15 11 17 16 15 7 4 1 3 3 3 10 3 2 8 12 17 20 22 22 21 18 17 19 17 18 22 20 12 12 12 14 21
21 23 28 28 17 11 6 9 7 6 10 17 18 15 11 3 3 10 4 6 2 9 12 8 14 6 0 8 18 10 4 -6 -5 1 7 11 13 19 22 23 24 21 24 23 23 26 30 27 48 10 2 20 0 4
19 12 19 27 21 10 3 2 13 11 16 22 19 23 29 9 10 11 6 4 21 18 16 11 12 16 17 19 15 11 7 21 11 4 10 10 21 27 21 22 21 19 19 22 24 27 28 26 27 28 21 46 10 8
13 17 16 18 8 7 13 18 17 15 15 8 5 9 25 11 17 18 10 6 10 10 9 14 22 23 20 19 16 21 18 12 7 2 9 21 22 26 21 32 36 38 24 16 13 12 12 15 21 29 29 24 33 27
15 12 13 7 9 10 16 10 7 12 5 11 10 19 15 10 14 11 18 12 1 4 11 9 16 15 9 10 7 2 7 11 12 22 23 16 19 36 29 12 16 15 19 20 14 15 14 11 24 33 32 30 23 40
18 16 18 18 15 12 0 7 11 12 11 12 14 16 15 11 12 11 21 20 10 12 21 22 14 7 6 14 12 2 3 19 20 18 29 45 20 14 11 13 14 15 12 12 13 12 22 7 13 27 38 26 30 22
13 12 18 3 11 7 5 5 7 10 6 9 21 29 22 21 4 7 5 6 14 20 31 18 16 14 13 6 2 8 25 16 31 34 15 20 10 7 19 10 8 12 12 11 6 4 15 16 11 31 35 26 22 20
9 -4 5 5 11 9 7 2 10 15 19 24 14 21 20 22 22 19 17 20 24 27 21 15 10 7 3 14 21 18 28 32 16 25 4 12 18 23 12 20 28 5 4 5 19 17 16 19 18 33 27 37 18 14
1 6 4 7 11 10 -3 8 16 3 2 4 13 3 5 -2 6 19 13 5 16 16 19 15 11 16 15 15 36 28 19 15 14 27 5 21 20 17 16 10 10 3 22 25 34 35 29 33 28 30 30 28 26 20
2 1 9 14 13 25 18 10 24 1 9 4 4 4 -2 8 16 18 21 17 17 18 20 19 12 15 27 26 24 19 20 19 17 23 15 10 8 8 7 6 9 17 2 18 16 19 16 20 29 33 38 22 27 4
5 6 10 11 5 12 12 12 12 25 18 8 6 6 8 19 20 18 17 17 16 15 16 23 35 27 20 18 15 16 11 13 8 8 11 12 12 14 25 28 29 21 15 21 13 15 8 33 33 34 39 25 18 5
5 9 12 12 10 6 16 19 -1 18 19 13 11 15 28 19 21 26 20 17 19 33 28 13 14 16 12 11 9 12 12 10 10 15 11 13 12 19 22 9 12 13 15 14 13 14 16 20 32 40 29 32 2 6
16 12 8 10 8 18 18 9 19 16 -1 15 18 19 30 24 22 21 26 27 20 10 14 17 14 10 11 11 14 12 6 11 18 15 14 13 16 12 14 15 11 15 13 18 20 18 17 24 41 35 26 20 -0 5
22 17 13 11 16 16 17 10 11 14 17 15 19 19 38 29 10 13 5 2 7 16 17 17 16 13 12 14 17 10 12 17 13 16 15 11 12 13 12 12 17 11 8 12 13 13 18 23 36 24 6 7 3 -1
7 8 5 8 21 14 12 3 6 9 13 19 27 34 5 19 6 10 9 5 6 7 15 24 22 16 19 22 17 12 14 12 11 13 9 8 11 12 14 14 17 21 23 18 5 26 17 12 8 8 18 15 6 6
5 5 7 23 18 14 18 10 25 34 22 27 11 14 9 7 4 -0 7 12 10 11 10 15 23 18 15 16 15 13 12 14 15 13 11 8 8 7 8 15 20 17 15 18 20 15 20 16 16 14 6 -0 -0 5
Height
5680 5682 5682 5685 5687 5688 5688 5689 5690 5690 5690 5690 5690 5690 5690 5689 5689 5689 5689 5685 5684 5682 5683 5683 5681 5677 5674 5669 5666 5665 5663 5662 5658 5654 5650 5649 5647 5642 5640 5640 5635 5632 5629 5631 5626 5619 5618 5621 5619 5618 5614 5608 5607 5602
5658 5662 5665 5666 5668 5669 5671 5671 5672 5673 5673 5672 5672 5672 5672 5671 5671 5671 5671 5669 5667 5664 5666 5666 5665 5662 5659 5655 5649 5647 5644 5640 5633 5629 5627 5625 5625 5623 5623 5621 5619 5614 5613 5611 5610 5605 5602 5602 5601 5598 5589 5587 5583 5576
5635 5639 5642 5644 5647 5648 5650 5651 5652 5653 5654 5654 5653 5652 5651 5651 5651 5651 5651 5647 5645 5645 5648 5646 5644 5642 5640 5633 5626 5626 5625 5620 5617 5609 5606 5602 5599 5600 5600 5599 5595 5593 5592 5588 5588 5590 5587 5586 5581 5570 5567 5561 5560 5554
5615 5618 5620 5622 5624 5626 5627 5629 5630 5631 5633 5633 5633 5632 5632 5630 5630 5630 5631 5626 5621 5619 5623 5632 5627 5623 5620 5613 5609 5605 5604 5601 5594 5588 5585 5583 5581 5581 5579 5577 5576 5572 5567 5572 5572 5569 5567 5556 5552 5544 5542 5539 5538 5542
5595 5597 5599 5602 5603 5604 5606 5607 5608 5609 5610 5611 5611 5611 5610 5609 5608 5609 5609 5604 5598 5596 5601 5605 5604 5607 5602 5596 5593 5589 5583 5579 5572 5565 5563 5560 5558 5555 5556 5554 5556 5555 5552 5552 5551 5548 5540 5535 5525 5521 5522 5525 5527 5523
5572 5575 5576 5579 5581 5583 5584 5586 5586 5586 5587 5587 5587 5587 5586 5585 5585 5586 5586 5582 5574 5570 5571 5578 5584 5582 5583 5575 5571 5569 5565 5558 5549 5546 5545 5541 5542 5534 5527 5530 5540 5537 5536 5532 5529 5523 5515 5514 5511 5509 5507 5510 5507 5500
5552 5553 5554 5557 5559 5560 5563 5562 5564 5565 5564 5564 5564 5563 5563 5561 5562 5566 5562 5555 5554 5550 5547 5551 5556 5558 5557 5555 5549 5546 5540 5538 5532 5526 5525 5523 5522 5516 5508 5513 5522 5523 5511 5505 5497 5502 5500 5500 5496 5494 5490 5491 5486 5483
5535 5536 5539 5539 5540 5541 5543 5544 5544 5544 5543 5543 5542 5542 5543 5543 5543 5547 5536 5535 5534 5531 5526 5526 5536 5537 5531 5526 5523 5520 5517 5516 5514 5510 5509 5505 5504 5497 5488 5505 5497 5490 5489 5491 5486 5484 5484 5480 5480 5479 5475 5470 5467 5464
5517 5519 5520 5521 5523 5523 5525 5526 5527 5527 5524 5523 5523 5523 5525 5524 5524 5525 5521 5519 5514 5512 5502 5509 5513 5512 5506 5500 5500 5496 5493 5494 5493 5497 5496 5485 5488 5480 5481 5475 5475 5474 5473 5475 5472 5466 5466 5465 5462 5460 5456 5452 5450 5447
5499 5501 5502 5503 5505 5507 5509 5509 5508 5505 5505 5503 5501 5505 5507 5508 5503 5502 5499 5501 5498 5492 5487 5495 5489 5485 5480 5481 5479 5475 5472 5474 5469 5478 5466 5467 5469 5470 5461 5456 5454 5454 5453 5451 5451 5449 5447 5446 5445 5444 5441 5439 5436 5436
5481 5483 5483 5483 5485 5487 5487 5489 5489 5487 5484 5481 5482 5485 5484 5483 5482 5481 5481 5483 5477 5473 5476 5472 5465 5464 5465 5464 5462 5455 5453 5451 5449 5458 5448 5445 5448 5449 5445 5441 5439 5437 5436 5435 5433 5432 5432 5431 5430 5432 5430 5428 5427 5426
5463 5463 5463 5463 5464 5465 5467 5468 5469 5468 5464 5461 5460 5459 5464 5461 5459 5458 5462 5464 5460 5461 5458 5450 5448 5448 5448 5444 5442 5441 5438 5434 5435 5434 5432 5429 5434 5431 5431 5429 5427 5424 5424 5423 5422 5422 5421 5421 5418 5420 5418 5417 5418 5415
5446 5447 5446 5445 5445 5445 5447 5448 5448 5449 5444 5439 5436 5436 5438 5439 5438 5441 5447 5449 5446 5440 5441 5440 5439 5436 5434 5433 5430 5429 5429 5431 5425 5423 5423 5421 5420 5419 5417 5416 5413 5411 5410 5411 5411 5410 5409 5407 5406 5406 5407 5406 5404 5405
5430 5431 5428 5427 5427 5427 5427 5427 5428 5429 5423 5421 5419 5417 5417 5419 5419 5434 5432 5428 5429 5430 5428 5426 5425 5425 5424 5421 5419 5414 5414 5414 5413 5418 5416 5413 5410 5409 5404 5402 5401 5400 5397 5397 5395 5396 5396 5394 5394 5396 5395 5395 5394 5394
5414 5415 5412 5412 5411 5409 5409 5408 5410 5410 5408 5407 5405 5400 5404 5411 5414 5417 5414 5413 5415 5415 5415 5414 5413 5413 5413 5410 5406 5403 5400 5401 5402 5401 5402 5402 5398 5393 5388 5386 5384 5384 5383 5382 5383 5381 5380 5380 5379 5382 5385 5384 5384 5384
5399 5397 5399 5397 5396 5395 5395 5395 5396 5395 5395 5393 5391 5391 5395 5399 5404 5402 5402 5404 5405 5403 5403 5402 5399 5397 5396 5393 5391 5391 5390 5387 5392 5389 5386 5384 5381 5378 5374 5371 5370 5369 5368 5367 5369 5368 5365 5366 5365 5366 5371 5372 5371 5373
5380 5383 5384 5382 5382 5383 5383 5384 5382 5380 5379 5379 5380 5384 5385 5387 5389 5392 5393 5393 5393 5391 5389 5390 5385 5384 5381 5376 5377 5379 5377 5378 5378 5374 5371 5367 5364 5362 5359 5356 5354 5352 5350 5349 5347 5347 5346 5347 5348 5350 5354 5358 5357 5360
5367 5368 5368 5369 5370 5369 5369 5369 5369 5366 5366 5369 5371 5376 5374 5376 5378 5380 5381 5382 5379 5377 5376 5374 5372 5368 5365 5362 5364 5369 5368 5366 5363 5359 5355 5352 5349 5345 5342 5338 5336 5334 5332 5331 5329 5328 5327 5328 5330 5335 5338 5343 5345 5348
5354 5354 5355 5357 5358 5359 5359 5357 5356 5353 5356 5359 5361 5363 5363 5364 5367 5367 5368 5369 5367 5366 5361 5360 5356 5352 5353 5355 5355 5356 5355 5352 5347 5344 5341 5338 5335 5330 5326 5323 5319 5317 5315 5314 5313 5313 5313 5314 5315 5318 5321 5325 5331 5335
5342 5344 5346 5347 5349 5348 5346 5345 5346 5344 5346 5350 5350 5351 5352 5353 5355 5355 5356 5357 5355 5350 5347 5344 5344 5344 5343 5345 5345 5342 5339 5337 5333 5326 5325 5325 5321 5316 5312 5308 5306 5303 5301 5300 5299 5299 5298 5297 5298 5297 5299 5305 5313 5322
5333 5336 5337 5339 5339 5338 5337 5336 5336 5337 5339 5338 5341 5341 5340 5341 5341 5343 5345 5346 5340 5337 5336 5336 5334 5333 5334 5331 5330 5329 5326 5324 5319 5316 5311 5306 5306 5302 5299 5297 5293 5291 5290 5289 5287 5287 5286 5284 5284 5283 5285 5290 5296 5305
5326 5326 5327 5328 5327 5327 5326 5326 5328 5330 5329 5329 5330 5331 5329 5331 5332 5334 5333 5329 5327 5330 5327 5324 5323 5321 5320 5320 5319 5316 5313 5311 5309 5304 5300 5295 5291 5289 5288 5286 5284 5283 5282 5281 5279 5278 5277 5275 5272 5272 5274 5278 5283 5291
5316 5317 5318 5319 5319 5317 5318 5321 5321 5323 5321 5322 5323 5321 5320 5321 5323 5323 5318 5320 5321 5321 5317 5313 5312 5312 5309 5309 5306 5303 5302 5299 5294 5291 5287 5284 5283 5282 5280 5278 5276 5275 5274 5273 5270 5268 5267 5265 5263 5262 5264 5268 5273 5282
5309 5310 5311 5310 5311 5310 5311 5313 5316 5316 5315 5314 5314 5311 5311 5311 5312 5309 5307 5310 5310 5308 5305 5304 5302 5298 5297 5295 5293 5292 5292 5288 5282 5280 5279 5277 5276 5274 5272 5271 5269 5267 5265 5264 5262 5260 5259 5257 5255 5255 5256 5261 5267 5276
5302 5303 5304 5302 5303 5304 5305 5308 5309 5309 5308 5308 5306 5303 5303 5303 5300 5298 5297 5301 5300 5297 5294 5292 5289 5287 5284 5283 5283 5282 5282 5277 5274 5273 5273 5271 5268 5267 5266 5264 5263 5260 5257 5255 5253 5251 5250 5249 5248 5249 5252 5256 5262 5271
5293 5295 5296 5297 5297 5299 5300 5303 5304 5303 5302 5301 5300 5298 5297 5294 5291 5288 5293 5293 5289 5287 5286 5284 5282 5279 5277 5276 5274 5274 5274 5273 5270 5268 5268 5265 5262 5260 5259 5257 5256 5255 5251 5247 5245 5243 5243 5241 5241 5243 5247 5252 5259 5268
5285 5289 5292 5294 5296 5297 5297 5297 5297 5295 5293 5292 5293 5292 5289 5284 5281 5283 5282 5281 5278 5279 5277 5275 5273 5270 5270 5270 5270 5269 5268 5267 5265 5264 5262 5261 5259 5256 5255 5254 5253 5251 5247 5245 5243 5240 5239 5238 5238 5240 5243 5249 5257 5266
5281 5285 5288 5292 5291 5291 5289 5288 5288 5287 5287 5288 5286 5283 5278 5275 5273 5276 5275 5273 5271 5269 5268 5268 5267 5266 5265 5265 5264 5263 5262 5261 5260 5259 5258 5257 5255 5254 5252 5250 5248 5247 5246 5244 5242 5240 5239 5237 5238 5241 5244 5250 5258 5266
5278 5282 5283 5284 5284 5283 5283 5283 5283 5283 5282 5278 5274 5271 5269 5271 5271 5268 5266 5265 5264 5263 5264 5264 5264 5261 5261 5260 5260 5259 5258 5258 5257 5257 5256 5255 5254 5252 5250 5249 5248 5246 5245 5244 5243 5242 5241 5240 5240 5242 5246 5252 5260 5268
5276 5278 5279 5279 5279 5278 5278 5276 5276 5275 5273 5271 5268 5266 5266 5266 5264 5262 5262 5263 5262 5262 5261 5260 5259 5259 5258 5258 5257 5256 5256 5256 5255 5255 5254 5253 5251 5250 5249 5248 5247 5247 5246 5245 5245 5244 5244 5244 5244 5247 5252 5260 5267 5272
5271 5272 5274 5273 5273 5273 5271 5269 5267 5266 5266 5266 5265 5262 5262 5262 5263 5262 5262 5261 5261 5260 5259 5258 5257 5257 5256 5256 5255 5255 5255 5254 5254 5253 5252 5251 5250 5249 5249 5248 5247 5247 5246 5246 5247 5247 5248 5249 5252 5255 5260 5265 5270 5274
5267 5267 5267 5266 5267 5265 5263 5263 5263 5263 5263 5262 5262 5261 5262 5263 5263 5264 5263 5262 5260 5258 5257 5256 5255 5255 5254 5254 5254 5254 5253 5252 5252 5252 5250 5250 5250 5249 5249 5248 5247 5247 5246 5247 5248 5249 5252 5255 5258 5261 5265 5268 5272 5276
5261 5262 5261 5259 5259 5260 5259 5258 5258 5259 5260 5259 5260 5261 5262 5263 5262 5262 5261 5259 5258 5256 5255 5255 5254 5253 5253 5253 5253 5252 5252 5252 5252 5251 5250 5249 5249 5249 5249 5249 5248 5248 5248 5248 5249 5250 5252 5255 5258 5262 5266 5269 5272 5275